Regional Weather Roundup
Issued by NWS Green Bay, WI

Home | Current Version | Previous Version | Text Only | Print | Product List | Glossary On
Versions: 1 2 3 4 5 6 7 8 9 10 11 12 13 14 15 16 17 18 19 20 21 22 23 24 25 26 27 28 29 30 31 32 33 34 35 36 37 38 39 40 41 42 43 44 45 46 47 48 49 50
000
ASUS43 KGRB 311811
RWRGRB

NORTH-CENTRAL AND NORTHEAST WISCONSIN REGIONAL WEATHER ROUNDUP
NATIONAL WEATHER SERVICE GREEN BAY WI
100 PM CDT TUE MAY 31 2016

WIZ005-009-010>012-018-019-311900-
NORTH CENTRAL WISCONSIN

CITY           SKY/WX    TMP DP  RH WIND       PRES   REMARKS
IRONWOOD       CLOUDY    64  52  63 SE13G20     N/A
MANITOWISH WTR NOT AVBL
ARBOR VITAE    MOSUNNY   72  55  55 S14G20    29.99S
EAGLE RIVER      N/A     68  49  50 SE9G20    30.01S
LAND O LAKES   CLOUDY    67  49  52 SE10      30.02F
RHINELANDER    SUNNY     70  52  52 SE13G25   30.00F
PHILLIPS       CLOUDY    70  56  61 SE8       29.95F
ANTIGO         MOSUNNY   68  55  64 SE15      30.02F
TOMAHAWK       SUNNY     71  55  56 SE9       29.99F
MERRILL        SUNNY     71  55  57 SE14G21   30.00S
$$

WIZ013-073-311900-
NORTHEAST WISCONSIN

CITY           SKY/WX    TMP DP  RH WIND       PRES   REMARKS
IRON MOUNTAIN  SUNNY     69  47  45 E10G17    30.03F
MARINETTE      SUNNY     57  48  72 E13       30.08F
OCONTO         SUNNY     62  47  59 E9G18     30.05F
$$

WIZ017-030-035>037-045-311900-
CENTRAL WISCONSIN

CITY           SKY/WX    TMP DP  RH WIND       PRES   REMARKS
MEDFORD        PTSUNNY   70  59  67 SE10G20   29.96S
WAUSAU         SUNNY     73  55  53 SE16G23   29.97F
MOSINEE        SUNNY     72  55  56 SE12G18   30.00S
MARSHFIELD     PTSUNNY   75  59  57 SE16      29.96R
WISC RAPIDS    PTSUNNY   73  58  59 SE13      29.98R
STEVENS POINT  MOSUNNY   71  56  58 E14G20    30.00R
WAUPACA        MOSUNNY   75  57  52 E13       30.01R
SHAWANO        SUNNY     70  53  56 E13       30.04S
CLINTONVILLE   SUNNY     70  54  56 E10G16    30.02S
WAUTOMA        MOSUNNY  N/A N/A N/A E7        29.99R
$$

WIZ038-039-048-051-311900-
FOX VALLEY

CITY           SKY/WX    TMP DP  RH WIND       PRES   REMARKS
NWS GREEN BAY  SUNNY     68  55  63 NE13      30.03F
APPLETON       MOSUNNY   72  54  53 E9G16     30.01S
OSHKOSH        MOSUNNY   73  57  57 E13       30.00S
FOND DU LAC    SUNNY     76  57  51 S9        30.01R
$$

WIZ022-050-052-311900-
EAST CENTRAL WISCONSIN

CITY           SKY/WX    TMP DP  RH WIND       PRES   REMARKS
EPHRAIM        FAIR      61  45  56 NE9       30.07F
STURGEON BAY   SUNNY     62  48  60 NE9       30.07
MANITOWOC      MOSUNNY   63  52  67 NE7       30.05F
SHEBOYGAN      SUNNY     64  54  69 E9        30.03F
$$

LMZ563-521-522-541>543-311900-
LAKESHORE

STATION/POSITION TIME  TEMP    WIND        PRES    VSBY  WAVE
                       AIR SEA DIR/SP/G                  HT/PER
                 (UTC) (F)     (DEG/KT/KT) (MB)    (MI)  (FT/S)
SHEBOYGAN LKSHOR 1800   49      10/ 11/ 11 1017.7F
KEWAUNEE LKSHORE 1700   50      30/ 10/ 13 1017.6R
ALGOMA MARINA    1717           70/ 14/ 19   N/A
NORTHPORT PIER   1700   53      70/ 10/ 13 1019.0F
N MID LAKE BUOY  1750   48 48   20/ 10/ 12 1018.2F         1/ 4
SISTER BAY LKSHO 1705   60      70/  7/ 11   N/A
CHAMBERS ISLAND  1700   54      10/ 13/ 14 1019.0F
MENOMINEE LKSHOR 1700   53      20/ 15/ 17 1017.6F
$$




USA.gov is the U.S. government's official web portal to all federal, state and local government web resources and services.